This is the latest recevied weather packets stored in our database for station/object EA2KR-10. If no packets are shown the sender has not sent any weather packets the latest 10 day(s).
| Time | Temp. | Humidity | Pressure | Rain* | Wind** | Luminosity | Snow |
|---|---|---|---|---|---|---|---|
| 1787486597 | 37.22° C | 36% | 1028.7 hPa | - | - | - | - |
| 1787484796 | 35.56° C | 38% | 1028.9 hPa | - | - | - | - |
| 1787482995 | 34.44° C | 40% | 1029 hPa | - | - | - | - |
| 1787481195 | 32.78° C | 41% | 1029.3 hPa | - | - | - | - |
| 1787479395 | 31.67° C | 42% | 1029.3 hPa | - | - | - | - |
| 1787477595 | 30.56° C | 43% | 1029.4 hPa | - | - | - | - |
| 1787475795 | 29.44° C | 45% | 1029.5 hPa | - | - | - | - |
| 1787473995 | 27.78° C | 45% | 1029.4 hPa | - | - | - | - |
| 1787472195 | 26.67° C | 45% | 1029.5 hPa | - | - | - | - |
| 1787470394 | 26.11° C | 45% | 1029.5 hPa | - | - | - | - |
| 1787468594 | 25.56° C | 46% | 1029.5 hPa | - | - | - | - |
| 1787466799 | 25.56° C | 45% | 1029.3 hPa | - | - | - | - |
| 1787464999 | 25.56° C | 45% | 1029 hPa | - | - | - | - |
| 1787463199 | 25.56° C | 45% | 1028.8 hPa | - | - | - | - |
| 1787461399 | 25.56° C | 44% | 1028.5 hPa | - | - | - | - |
| 1787459599 | 25.56° C | 44% | 1028.3 hPa | - | - | - | - |
| 1787457799 | 26.11° C | 42% | 1028.4 hPa | - | - | - | - |
| 1787455999 | 26.11° C | 43% | 1028.4 hPa | - | - | - | - |
| 1787454199 | 26.11° C | 42% | 1028.5 hPa | - | - | - | - |
| 1787452399 | 26.11° C | 41% | 1028.5 hPa | - | - | - | - |
| 1787450599 | 26.67° C | 41% | 1028.7 hPa | - | - | - | - |
| 1787448798 | 26.67° C | 40% | 1028.3 hPa | - | - | - | - |
| 1787446997 | 27.22° C | 40% | 1028.3 hPa | - | - | - | - |
| 1787445196 | 27.78° C | 39% | 1028.6 hPa | - | - | - | - |
| 1787443396 | 27.78° C | 39% | 1028.6 hPa | - | - | - | - |
* Rain since midnight (hover to see other rain measurements)
** Current wind speed in m/s (hover to see current wind gust speed)